Location: Glens Falls
(43.3090°N, 73.6440°W)
Time: 14:27:38
(UTC-05:00)

Daily predictions for brighter satellites

Satellite Brightness Start Highest point End
(mag) Time Altitude Azimuth Time Altitude Azimuth Time Altitude Azimuth
SKYMED 2 3.6 18:02:26 10° NNE 18:06:48 84° ESE 18:11:08 10° SSW
COSMOS 2428 3.8 18:03:01 10° N 18:07:34 24° NE 18:12:06 10° ESE
ATLAS CENTAUR R/B 4.3 18:06:40 10° NW 18:07:35 11° NNW 18:08:31 10° NNW
METEOR-M 4.2 18:04:37 10° SSE 18:09:50 57° ENE 18:15:05 10° N
Cosmos 2237 Rocket 4.1 18:09:42 10° NNE 18:11:03 11° NE 18:12:23 10° NE
Cosmos 1536 4.2 18:13:03 10° SE 18:15:48 18° E 18:18:34 10° NE
H-2A R/B 4.2 18:13:59 10° ESE 18:16:33 18° ENE 18:19:10 10° NNE
Okean 1 3.3 18:15:07 10° N 18:19:12 78° E 18:23:16 10° SSE
Meteor 1-25 Rocket 4.4 18:13:52 10° SSW 18:19:28 80° W 18:25:12 10° N
Cosmos 1812 3.3 18:16:10 10° NNW 18:19:59 63° W 18:23:47 10° S
Cosmos 1633 3.1 18:18:05 10° SSE 18:21:30 38° E 18:24:57 10° NNE
Cosmos 1536 Rocket 3.5 18:17:26 10° N 18:21:55 69° E 18:26:22 10° SSE
Cosmos 1818 3.6 18:20:28 10° SSW 18:25:55 88° ESE 18:31:26 10° NE
Cosmos 407 Rocket 3.7 18:22:04 10° SSW 18:27:19 78° WNW 18:32:40 10° NNE
Cosmos 2360 Rocket 2.2 18:21:48 10° NNW 18:27:27 63° ENE 18:33:03 10° SE
Cosmos 2219 Rocket 3.5 18:24:41 10° N 18:28:47 20° NE 18:31:49 14° E
Cosmos 2219 4.1 18:25:23 10° SSE 18:30:03 26° ESE 18:34:44 10° NE
Cosmos 676 Rocket 3.9 18:26:40 10° SSW 18:31:51 82° ESE 18:37:06 10° NNE
Cosmos 1570 Rocket 4.4 18:32:33 10° N 18:37:31 41° ENE 18:42:27 10° SE
Meteor 1-11 Rocket 3.9 18:33:45 10° S 18:39:23 56° E 18:45:10 10° NNE
DELTA 2 R/B (1) 4.4 18:40:40 10° W 18:45:58 44° SSW 18:50:43 13° SE
Cosmos 1140 Rocket 3.4 18:41:51 10° S 18:46:56 68° ESE 18:52:04 10° NNE
Resurs 01 Rocket 1.7 18:45:31 10° SSE 18:49:49 54° ENE 18:54:07 10° N
Cosmos 1602 3.6 18:46:01 10° S 18:49:53 84° E 18:53:49 10° N
Cosmos 1300 Rocket 3.5 18:47:01 10° S 18:51:25 80° E 18:55:52 10° N
Cosmos 614 Rocket 3.9 18:49:49 10° S 18:54:48 60° ESE 18:59:49 10° NNE
Abrixas rocket 3.8 18:54:18 10° SSW 18:56:51 21° SE 18:56:51 21° SE
Cosmos 1833 4.3 18:51:14 10° SSW 18:56:57 83° WNW 19:02:38 10° NNE
ALOS 2.2 18:53:07 10° SSE 18:57:47 85° ENE 19:02:30 10° NNW
Cosmos 2181 Rocket 4.1 18:51:37 10° N 18:57:54 86° W 19:04:14 10° S
Spot 2 Rocket 3.4 18:57:09 10° SSE 19:02:10 71° ENE 19:07:14 10° N
USA 229 DEB 4.0 18:55:28 10° NNW 19:02:25 53° NE 19:07:02 22° ESE
USA 229 4.0 18:55:34 10° NNW 19:02:31 52° NE 19:07:06 22° ESE
Cosmos 2333 Rocket 3.1 18:57:37 10° N 19:02:36 29° NE 19:04:11 25° E
SL-16 R/B 4.4 18:59:09 10° NW 19:03:50 27° WSW 19:08:29 10° SSW
Cosmos 2208 Rocket 4.0 18:59:06 10° NNW 19:04:33 65° ENE 19:09:52 10° SSE
FREGAT/IRIS 4.4 19:02:40 10° SSW 19:05:32 35° W 19:08:26 10° NNW
Helios 1A 3.3 19:04:17 28° ESE 19:05:52 41° ENE 19:09:49 10° N
Cosmos 1340 4.0 19:02:45 10° NNW 19:06:21 42° W 19:09:56 10° SSW
NOSS 8 (E) 4.4 19:03:48 10° SSW 19:07:14 84° SE 19:09:18 25° NE
Resurs 1-3 3.5 19:03:19 10° SSE 19:07:41 70° ENE 19:12:03 10° N
Cosmos 2074 Rocket 3.9 19:07:45 10° S 19:13:55 65° E 19:20:09 10° NNE
Cosmos 1850 Rocket 3.9 19:08:47 10° SSW 19:14:04 76° ESE 19:19:25 10° NNE
Cosmos 2184 Rocket 3.9 19:10:39 10° S 19:16:53 66° E 19:23:05 10° NNE
Helios 1B rocket 2.8 19:13:36 10° NNE 19:18:13 41° SE 19:21:34 10° S
Envisat 3.6 19:18:29 33° ENE 19:18:36 34° ENE 19:23:08 10° N
NOSS 8 (H) 4.3 19:17:58 10° SSW 19:21:19 84° SE 19:21:51 62° NE
Intercosmos 24 4.3 19:17:20 10° S 19:21:32 71° E 19:27:39 10° NNE
Okean 2 3.5 19:17:47 10° N 19:21:52 52° E 19:22:00 51° E
USA 186 4.1 19:24:36 14° N 19:24:36 14° N 19:25:06 10° N
ERS-1 Rocket 4.4 19:25:24 21° NE 19:25:24 21° NE 19:27:58 10° NNE
Okean 1 Rocket 3.7 19:21:51 10° SSW 19:26:16 58° W 19:30:43 10° N
SAR-Lupe-1 3.9 19:26:19 75° ENE 19:26:19 75° ENE 19:29:54 10° N
Genesis I 3.4 19:22:54 10° NW 19:26:51 68° WSW 19:28:05 40° S
Meteor 1-5 Rocket 4.2 19:21:08 10° S 19:27:05 73° E 19:32:59 10° NNE
FENGYUN 3A 4.3 19:22:29 10° S 19:27:47 56° W 19:33:08 10° NNW
Cosmos 1892 Rocket 4.0 19:25:49 10° N 19:29:15 43° NE 19:29:15 43° NE
SAR-Lupe-4 3.5 19:30:26 54° S 19:31:10 80° WSW 19:34:46 10° NNW
NOSS 3-1 (C) 4.4 19:27:36 10° NNW 19:34:37 44° NE 19:36:56 36° E
Nadezhda 3 Rocket 4.1 19:29:29 10° N 19:35:27 49° ENE 19:36:38 44° ESE
Gbstr 26 Del rocket 2.7 19:33:03 10° WSW 19:36:48 72° NNW 19:36:52 72° NNW
GEOS 3 Rocket 3.9 19:39:42 17° NNE 19:43:45 67° NW 19:48:58 10° SW
Cosmos 2285 Rocket 3.9 19:37:48 10° NNW 19:44:17 88° ENE 19:47:50 29° SSE
Cosmos 1025 Rocket 3.6 19:40:46 10° NNW 19:45:04 58° W 19:48:41 14° S
CZ-2D R/B 4.0 19:43:32 28° SSW 19:45:16 51° W 19:49:01 10° NNW
Cosmos 2154 Rocket 4.0 19:39:39 10° S 19:45:51 58° E 19:52:04 10° NNE
Cosmos 405 Rocket 3.7 19:42:18 10° N 19:45:01 40° N 19:45:01 40° N
H-2A R/B 4.4 19:47:17 10° SSW 19:50:37 32° W 19:54:01 10° NNW
Meteor 2-13 Rocket 4.3 19:45:43 10° S 19:51:46 81° E 19:57:53 10° N
COSMOS 2428 3.2 19:46:40 10° NNW 19:52:15 60° WSW 19:55:38 24° S
Cosmos 2333 4.5 19:47:58 10° NNW 19:53:40 67° WSW 19:56:21 32° S
Cosmos 2237 Rocket 2.5 19:50:55 10° NNW 19:55:53 50° NE 19:55:53 50° NE
NOSS 0 Rocket 3.7 20:01:51 10° NNW 20:08:02 86° ENE 20:08:24 80° SE
Cosmos 2219 Rocket 2.2 20:07:44 10° NNW 20:13:19 72° WSW 20:13:35 70° SW
Cosmos 2219 4.1 20:08:21 10° SW 20:13:54 48° WNW 20:19:27 10° NNE
SL-16 R/B 3.7 20:24:34 10° NNW 20:27:20 27° N 20:27:20 27° N
Cosmos 2333 Rocket 3.2 20:41:34 10° NW 20:46:13 44° W 20:46:13 44° W
NOSS 3-1 (A) 4.3 20:58:46 10° NW 21:04:58 64° NW 21:04:58 64° NW
ATLAS 2AS CENTAUR R/B 4.0 21:04:44 10° NNW 21:10:18 36° N 21:10:18 36° N
